Regional Weather Roundup
Issued by NWS

Home | Current Version | Previous Version | Text Only | Print | Product List | Glossary Off
Versions: 1 2 3 4 5 6 7 8 9 10 11 12 13 14 15 16 17 18 19 20 21 22 23 24 25 26 27 28 29 30 31 32 33 34 35 36 37 38 39 40 41 42 43 44 45 46 47 48 49 50

057
ASUS43 KDTX 030810
RWRMI
MICHIGAN HOURLY REGIONAL WEATHER ROUNDUP
NATIONAL WEATHER SERVICE DETROIT/PONTIAC MI
400 AM EDT TUE MAY 03 2016

NOTE: "FAIR" INDICATES FEW OR NO CLOUDS BELOW 12,000 FEET WITH NO
SIGNIFICANT WEATHER AND/OR OBSTRUCTION TO VISIBILITY.

MIZ047>049-052>055-059>063-066>070-074>076-081>083-030900-
SOUTHEAST LOWER MICHIGAN

CITY           SKY/WX    TMP DP  RH WIND       PRES   REMARKS
ALMA           CLOUDY    37  36  99 CALM      29.95F
ANN ARBOR      CLOUDY    44  43  96 CALM      29.94F
BAD AXE        CLEAR     32  31  96 S3        29.95F
CARO           CLEAR     32  32  99 CALM      29.95S
DETROIT CITY   MOCLDY    41  36  82 CALM      29.95F
DETROIT        MOCLDY    46  44  93 E3        29.95F FOG
FLINT          FOG       39  36  89 CALM      29.96S VSB 3/4
GROSSE ILE     FOG       45  43  93 CALM      29.94F VSB 1/2
HILLSDALE      CLOUDY    45  44  95 CALM      29.94F FOG
HOWELL         CLOUDY    43  41  93 CALM      29.95S

CITY           SKY/WX    TMP DP  RH WIND       PRES   REMARKS
JACKSON        CLOUDY    47  44  90 NW3       29.94F
LAMBERTVILLE   CLOUDY    48  46  93 CALM      29.95S FOG
LANSING        CLEAR     43  40  89 CALM      29.96F
LAPEER         FAIR      34  34  99 CALM      29.95F
MASON          CLOUDY    45  42  92 CALM      29.95S
MONROE         CLOUDY    47  47 100 S3        29.94S FOG
MT. CLEMENS    CLEAR     37  37 100 NW2       29.94F
PONTIAC        CLEAR     39  37  92 CALM      29.94S
PORT HOPE        N/A     36  33  89 SW5       29.93F WCI  32
PORT HURON     CLEAR     34  34 100 CALM      29.95F FOG
TRI CITIES     CLEAR     42  33  70 S5        29.95F
MIDLAND        FAIR      35  33  94 CALM      29.94F
TROY           CLEAR     41  39  91 CALM      29.96F
SAGINAW HB     CLEAR     36  32  87 S3        29.95F
$$
MIZ043>046-050>051-056>058-064>065-071>073-077>080-030900-
SOUTHWEST LOWER MICHIGAN

CITY           SKY/WX    TMP DP  RH WIND       PRES   REMARKS
BATTLE CREEK   MOCLDY    46  43  89 CALM      29.96F
BENTON HARBOR  CLEAR     37  35  92 CALM      29.97F
BIG RAPIDS     CLEAR     37  33  85 CALM      29.94F
COLDWATER      CLOUDY    46  46 100 CALM      29.95F
FREMONT        FAIR      38  38 100 CALM      29.95S
HOLLAND        PTCLDY    39  36  89 CALM      29.97S
GRAND RAPIDS   CLEAR     39  37  92 S3        29.96F
IONIA          FAIR      41  40  95 W3        29.95S
KALAMAZOO      CLOUDY    47  42  83 CALM      29.96F
LUDINGTON      CLEAR     37  34  91 CALM      29.95F
MARSHALL       CLOUDY    46  45  93 CALM      29.95F
MOUNT PLEASANT CLEAR     37  35  90 CALM      29.94F
MUSKEGON       PTCLDY    37  34  89 CALM      29.96F
SOUTH HAVEN    CLEAR     36  35  99 CALM      29.96F
$$
MIZ016>042-030900-
NORTHERN LOWER MICHIGAN

CITY           SKY/WX    TMP DP  RH WIND       PRES   REMARKS
ALPENA         CLEAR     34  31  88 CALM      29.93F
BEAVER ISLAND  CLEAR     33  31  91 CALM      29.92F
BELLAIRE       CLEAR     32  31  96 CALM      29.95S FOG
CADILLAC       CLEAR     31  29  90 CALM      29.93F
CHARLEVOIX     CLEAR     38  33  83 SE3       29.95F
FRANKFORT      CLEAR     33  30  87 CALM      29.94F
GAYLORD        CLEAR     34  27  75 SW3       29.92F
GRAYLING       CLEAR     28  27  93 CALM      29.94S
HARBOR SPRINGS CLEAR     34  31  88 CALM      29.92F
HOUGHTON LAKE  CLEAR     34  33  96 CALM      29.93F
MANISTEE       CLEAR     36  28  75 CALM      29.95S
OSCODA         CLEAR     34  27  75 CALM      29.93F
PELLSTON       CLEAR     30  27  88 CALM      29.92F
ROGERS CITY    PTCLDY    35  30  81 SW3       29.93S
TRAVERSE CITY  CLEAR     37  32  82 CALM      29.92F
$$
MIZ007>008-015-030900-
EASTERN UPPER MICHIGAN

CITY           SKY/WX    TMP DP  RH WIND       PRES   REMARKS
KINROSS          N/A     32  30  93 CALM      29.91F
MACKINAC ISLAN CLEAR     37  30  75 CALM      29.92S
NEWBERRY       CLEAR     33  31  95 CALM      29.90F
S. S. MARIE    CLEAR     37  30  75 CALM      29.90F
MUNISING         N/A     33  29  85 S5        29.88F WCI  29
$$
MIZ004>006-011>014-085-030900-
CENTRAL UPPER MICHIGAN

CITY           SKY/WX    TMP DP  RH WIND       PRES   REMARKS
MANISTIQUE     CLEAR     32  30  94 CALM      29.90F
ESCANABA       CLEAR     34  30  86 CALM      29.89F
MENOMINEE      CLEAR     46  36  66 SW8       29.90F
SAWYER-GWINN   CLEAR     35  31  85 CALM      29.87F
$$
MIZ001>003-009>011-084-030900-
WESTERN UPPER MICHIGAN

CITY           SKY/WX    TMP DP  RH WIND       PRES   REMARKS
IRON MOUNTAIN  CLEAR     35  29  78 CALM      29.87F
HOUGHTON       CLEAR     47  31  53 SW6       29.84F
COPPER HARBOR    N/A     45  34  65 SW7       29.83F
IRONWOOD         N/A     41  34  75 SW8       29.86F
$$

ABBREVIATIONS USED IN REMARKS
   TC - TEMPERATURE IN CELSIUS
  WCI - WIND CHILL INDEX
   HX - HEAT INDEX
  VSB - VISIBILITY





USA.gov is the U.S. government's official web portal to all federal, state and local government web resources and services.